Погода в Истровке

Россия / Калининградская область     54°38′38″N   21°08′35″E
темп.,
°C
ветер,
м/с
пор.,
м/с
влажн.,
%
обл.,
%
осадки,
мм/ч
давл.,
гПа
погр.,
м
14 мая, пт
пт1423:00+7св249626 0.0 100377
02:00+6ссв119773 0.0 100210
05:00+6с00988 0.0 100110
08:00+11юз117940 0.0 1001486
11:00+14юз336772 0.0 10021072
14:00+15зюз3362100 0.1 10021186
17:00+15з236226 0.0 10021139
20:00+9ссз249466 0.0 1004117
15 мая, сб
сб1523:00+7сз229787 0.0 100533
02:00+6з019669 0.0 100510
05:00+6юз119681 0.0 100610
08:00+10ююз118499 0.0 1007152
11:00+14ююз2265100 0.0 1008615
14:00+15зюз2373100 0.0 1008688
17:00+14сз2280100 0.1 1008371
20:00+11ссз228799 0.1 100871
16 мая, вс
вс1623:00+10всв118970 0.0 100811
02:00+10юв119050 0.0 100811
05:00+9юв2296100 0.0 100817
08:00+14ююв358056 0.0 1007434
11:00+18ююв565841 0.0 10061239
14:00+18ююв4875100 1.1 10051312
17:00+17ю4786100 2.0 1005734
20:00+12ссз2498100 4.3 1005174
17 мая, пн
пн1723:00+11ссз1298100 0.6 100586
02:00+10с1299100 2.4 100580
05:00+10зсз1298100 1.8 100571
08:00+12зюз1292100 1.8 1005229
11:00+15зюз2375100 0.4 1006920
14:00+17юз226519 1.1 10061167
17:00+17ююв2372100 1.2 10051017
20:00+13ююв22905 4.9 100534
18 мая, вт
вт1823:00+10ююз2394100 0.1 100556
02:00+9ююз3796100 0.1 1005142
05:00+8ююз39987 0.0 1006211
08:00+11юз469182 0.0 1007552
11:00+14юз5777100 0.6 10081148
14:00+14зюз468294 2.2 10091107
17:00+12сз359072 1.5 1010549
20:00+10сз22940 1.8 101130